Location: Nakusp
(50.2330°N, 117.8000°W)
Time: 17:20:55
(UTC-07:00)

Daily predictions for brighter satellites

Satellite Brightness Start Highest point End
(mag) Time Altitude Azimuth Time Altitude Azimuth Time Altitude Azimuth
Helios 1B rocket 3.9 19:41:26 10° NE 19:44:19 18° E 19:47:11 10° SE
Helios 1A 3.7 19:43:20 10° SE 19:47:07 35° ENE 19:50:57 10° N
HJ-1C 3.4 19:44:55 10° SSE 19:48:19 89° WSW 19:51:46 10° NNW
Resurs 1-3 3.7 19:44:01 10° SSE 19:48:20 59° ENE 19:52:40 10° N
Cosmos 2098 4.1 19:47:09 10° S 19:50:24 65° E 19:53:22 10° NNE
Cosmos 1818 4.1 19:46:13 10° NNW 19:51:28 44° NE 19:56:37 10° ESE
SL-27 R/B 2.6 19:49:46 10° NNW 19:53:16 53° ENE 19:56:46 10° SE
COSMOS 2487 4.4 19:51:04 10° NNE 19:53:18 16° NE 19:55:21 11° E
Cosmos 2058 Rocket 3.8 19:49:57 10° SSW 19:54:23 62° WNW 19:58:54 10° N
Tiangong 1 3.0 19:52:48 10° SW 19:54:52 18° S 19:56:55 10° SE
COSMO-SKYMED 1 4.3 19:51:00 10° N 19:55:02 38° WNW 19:59:03 10° SW
Cosmos 1844 4.1 19:50:25 10° S 19:55:48 42° ESE 20:01:14 10° NE
Cosmos 1900 4.3 19:53:54 10° SSW 19:58:46 78° SE 20:03:44 10° NE
Lacrosse 4 Rocket 1.8 19:55:17 10° S 19:59:03 38° ESE 20:02:50 10° NE
CZ-2D R/B 3.3 19:55:47 10° SSE 19:59:36 63° ENE 20:03:28 10° N
SJ-6B 4.2 20:01:29 10° S 20:05:00 40° W 20:08:34 10° NNW
USA 186 1.4 20:02:54 10° SE 20:05:06 39° ENE 20:07:15 10° N
USA 267 3.6 19:59:17 10° E 20:05:37 60° NNE 20:12:02 10° WNW
Cosmos 1805 4.4 20:03:15 10° SE 20:06:23 23° E 20:09:32 10° NE
Cosmos 1937 Rocket 3.7 20:01:44 10° S 20:06:47 51° ESE 20:11:56 10° NNE
ERS-1 Rocket 4.1 20:03:35 12° ESE 20:07:14 26° ENE 20:11:21 10° N
Abrixas 2.7 20:04:27 10° W 20:07:15 54° S 20:09:11 18° ESE
Cosmos 1437 Rocket 2.8 20:03:28 10° S 20:07:27 69° E 20:11:31 10° NNE
Cosmos 1674 4.1 20:04:36 10° NNE 20:07:28 20° ENE 20:09:12 15° ESE
CZ-4B DEB 3.5 20:05:48 12° SE 20:08:21 33° ENE 20:11:12 10° N
Okean 3 Rocket 3.8 20:05:17 10° N 20:09:34 49° ENE 20:13:50 10° SSE
Cosmos 2298 Rocket 4.0 20:04:36 10° S 20:09:51 65° ESE 20:15:09 10° NNE
Meteor 1-22 Rocket 4.3 20:07:55 10° S 20:13:39 63° E 20:19:36 10° NNE
Cosmos 405 3.3 20:10:10 10° SSW 20:13:40 68° WNW 20:17:12 10° N
ALOS 3.5 20:14:23 10° S 20:18:52 45° W 20:23:23 10° NNW
Cosmos 1934 Rocket 3.9 20:14:16 10° S 20:20:23 75° E 20:26:28 10° NNE
Cosmos 1758 4.1 20:20:06 10° SSE 20:23:37 30° E 20:27:09 10° NNE
CZ-3B DEB 2.9 20:14:43 10° SW 20:24:37 50° SE 20:28:42 14° ENE
Lacrosse 5 2.8 20:20:27 10° S 20:24:38 26° SE 20:27:17 17° E
Cosmos 1939 Rocket 3.2 20:26:40 16° SE 20:29:41 47° ENE 20:33:42 10° N
SPOT 5 4.3 20:28:33 18° E 20:30:55 25° ENE 20:35:12 10° N
Cosmos 1953 2.9 20:30:53 10° SSE 20:34:38 37° E 20:38:25 10° NNE
Cosmos 2344 3.7 20:27:10 10° SSW 20:34:41 62° ESE 20:43:27 10° NE
Resurs 01 Rocket 2.8 20:30:32 10° S 20:34:44 44° W 20:39:00 10° NNW
CZ-4B DEB 4.5 20:31:16 10° SSE 20:34:46 83° ENE 20:38:23 10° NNW
Cosmos 482 Debris 2.6 20:33:13 10° WNW 20:34:59 60° N 20:34:59 60° N
GP-B 3.3 20:31:08 11° SSE 20:35:18 48° E 20:39:36 10° N
In-Cosmos 22 4.1 20:31:11 10° NNW 20:36:36 83° WSW 20:41:52 10° S
Cosmos 1821 Rocket 4.4 20:32:16 10° SSW 20:38:39 70° WNW 20:45:01 10° N
Cosmos 1812 Rocket 4.0 20:36:01 10° SSW 20:40:25 65° WNW 20:44:49 10° N
Cosmos 1844 Rocket 2.9 20:36:25 10° SW 20:42:05 76° WNW 20:47:45 10° NNE
YAOGAN 6 3.3 20:43:57 32° E 20:44:48 37° ENE 20:48:17 10° N
Cosmos 1833 Rocket 2.8 20:41:29 10° NNW 20:47:04 60° NE 20:50:13 26° SE
Cosmos 2278 Rocket 2.2 20:43:25 10° SSW 20:48:59 61° ESE 20:54:36 10° NE
Cosmos 1766 Rocket 3.6 20:47:23 10° N 20:51:51 64° ENE 20:54:17 26° SSE
Lacrosse 5 rocket 1.7 20:50:01 10° NW 20:53:56 49° NNE 20:55:11 34° ENE
Cosmos 2100 Rocket 4.3 20:49:24 13° SSE 20:54:47 45° E 21:00:47 10° NNE
RESURS DK-1 3.8 20:50:59 10° NW 20:54:48 36° WSW 20:58:30 10° S
Cosmos 1605 Rocket 4.0 20:50:08 10° S 20:56:25 87° W 21:02:50 10° N
Cosmos 1076 Rocket 3.5 20:53:36 10° NNW 20:57:54 84° W 21:00:54 19° S
Cosmos 2150 Rocket 4.5 20:53:41 10° SW 20:58:46 61° WNW 21:03:54 10° NNE
H-2A R/B 3.3 20:57:47 23° ENE 20:58:51 24° ENE 21:03:04 10° N
Cosmos 2151 4.4 20:56:16 10° NNE 20:59:22 22° ENE 20:59:22 22° ENE
Cosmos 2297 4.2 20:55:07 10° S 21:00:18 37° ESE 21:05:33 10° NE
ATLAS CENTAUR R/B 3.2 21:00:59 10° NNW 21:01:31 12° N 21:01:31 12° N
Cosmos 1766 4.4 21:00:21 10° SSW 21:04:04 44° WNW 21:07:49 10° N
Terra 3.6 21:08:47 17° NE 21:08:47 17° NE 21:11:45 10° NNE
Cosmos 158 Rocket 3.8 21:03:42 10° NNW 21:08:47 82° ENE 21:11:01 35° SSE
Cosmos 1802 Rocket 4.2 21:08:22 29° SE 21:11:00 46° E 21:16:50 10° NNE
MetOp-B 4.3 21:09:15 37° SE 21:11:07 55° ENE 21:16:21 10° N
USA 215 3.2 21:06:48 10° ENE 21:13:16 59° SE 21:19:41 10° SW
Cosmos 2082 Rocket 2.2 21:08:39 10° NNW 21:14:24 84° WSW 21:17:10 32° SSE
Timation 1 Rocket 4.4 21:09:40 10° S 21:15:31 56° ESE 21:21:24 10° NE
Cosmos 1271 Rocket 3.6 21:16:40 35° NE 21:16:40 35° NE 21:19:25 10° NNE
Cosmos 2058 4.4 21:12:26 10° NNE 21:15:06 23° NE 21:15:06 23° NE
Envisat 3.5 21:11:56 12° S 21:16:37 57° W 21:21:38 10° NNW
Timation 2 Rocket 3.9 21:10:13 10° NNW 21:16:42 88° NE 21:19:38 34° SSE
Cosmos 2061 Rocket 4.1 21:13:20 23° SSE 21:17:17 56° E 21:23:34 10° NNE
Cosmos 1544 3.6 21:13:56 10° SSW 21:17:31 57° WNW 21:21:11 10° N
Meteor 1-4 Rocket 2.4 21:16:41 46° SSW 21:17:38 80° WNW 21:21:09 10° N
Helios 1B rocket 3.2 21:15:54 10° N 21:19:57 53° WNW 21:23:58 10° SSW
Cosmos 1125 Rocket 3.4 21:17:34 10° S 21:22:43 66° ESE 21:27:54 10° NNE
Cosmos 1048 Rocket 4.2 21:17:49 10° NNW 21:22:56 67° WSW 21:25:18 32° S
Cosmos 1743 Rocket 3.5 21:19:37 10° N 21:24:02 66° ENE 21:24:24 62° ESE
Cosmos-2242 2.8 21:23:52 66° SE 21:24:13 70° E 21:28:28 10° NNE
Cosmos 1500 Rocket 3.7 21:22:59 10° N 21:27:00 52° ENE 21:27:00 52° ENE
Meteor 1-29 4.2 21:25:20 10° N 21:28:38 42° WNW 21:31:55 10° SW
COSMOS 2487 2.9 21:25:36 10° NNW 21:29:08 56° WSW 21:29:19 56° WSW
H-2A R/B 3.4 21:30:46 25° NE 21:30:46 25° NE 21:33:18 10° N
Cosmos 1818 4.4 21:29:55 10° NW 21:35:07 45° WSW 21:37:17 30° S
Cosmos 1184 Rocket 4.1 21:33:24 10° N 21:35:33 35° N 21:35:33 35° N
Lacrosse 4 Rocket 3.2 21:34:13 10° WSW 21:37:50 30° NW 21:41:29 10° NNE
SPOT 1/Viking Rocket 3.6 21:41:35 58° E 21:41:55 59° ENE 21:47:03 10° N
Cosmos 1674 4.0 21:39:44 10° NNW 21:43:14 37° W 21:44:09 31° SW
Cosmos 1340 Rocket 3.1 21:39:25 10° NNW 21:43:26 61° W 21:43:38 60° WSW
Cosmos 2251 Rocket 3.5 21:40:04 10° NNW 21:45:22 67° ENE 21:45:45 64° E
ERS-1 Rocket 3.5 21:43:34 32° SSW 21:45:43 55° W 21:50:42 10° NNW
USA 267 3.3 21:46:37 47° SSE 21:48:35 72° SW 21:55:09 10° WNW
ARGOS 3.0 21:48:37 66° SE 21:49:23 82° ENE 21:54:47 10° NNW
YAOGAN 11 4.4 21:50:51 58° SW 21:51:26 64° WSW 21:56:00 10° NNW
Cosmos 1470 3.3 21:54:29 57° NW 21:54:29 57° NW 21:58:06 10° N
MetOp-A 4.4 21:55:42 48° SSW 21:57:04 66° WSW 22:02:25 10° NNW
Cosmos 1459 Rocket 4.1 21:52:49 19° SSW 21:57:33 75° W 22:03:46 10° N
Cosmos 2173 Rocket 4.1 21:54:17 22° SSW 21:58:31 75° W 22:04:49 10° N
Cosmos 1864 Rocket 4.4 22:01:37 63° ESE 22:01:51 64° E 22:08:05 10° NNE
Nimbus 7 Rocket 4.4 21:59:20 10° NNE 22:04:43 62° ENE 22:04:43 62° ENE
Lacrosse 5 2.0 22:02:05 10° WSW 22:06:36 70° WSW 22:06:36 70° WSW
SPOT 5 3.4 22:07:47 57° SW 22:08:34 64° WSW 22:13:54 10° NNW
SL-08 RB Rocket 4.1 22:13:46 64° NW 22:13:46 64° NW 22:17:53 10° NNW
MOS 1-B Rocket 4.5 22:11:39 53° SSE 22:13:54 87° ENE 22:21:01 10° NNW
Cosmos 2016 Rocket 4.3 22:27:27 41° SW 22:29:32 62° WNW 22:35:40 10° N
Cosmos 1833 Rocket 4.2 22:26:00 10° NW 22:30:38 27° WSW 22:31:56 24° SW
Lacrosse 5 rocket 3.6 22:29:27 10° WNW 22:30:53 20° WNW 22:30:53 20° WNW
Cosmos 2278 Rocket 3.9 22:28:27 10° WSW 22:33:28 31° NW 22:38:30 10° NNE
Cosmos 1725 Rocket 3.9 22:34:23 76° WSW 22:34:42 78° W 22:40:57 10° N
CZ-3B DEB 2.7 22:30:53 10° W 22:36:34 46° WNW 22:36:34 46° WNW
H-2A R/B 2.5 22:38:24 61° WNW 22:38:24 61° WNW 22:43:12 10° NNW
Tsikada Rocket 4.3 22:32:43 10° NNW 22:38:47 60° W 22:39:24 57° WSW
Terra 3.0 22:47:39 40° NNW 22:47:39 40° NNW 22:50:42 10° NNW
USA 215 3.5 22:52:37 27° NE 22:56:23 67° NNW 23:02:51 10° W
Cosmos 2082 Rocket 4.4 22:54:24 10° WNW 22:57:36 15° W 22:59:02 14° WSW
H-2A R/B 4.4 23:07:54 21° NW 23:07:54 21° NW 23:09:32 10° NNW
Cosmos 2297 Rocket 4.1 23:37:34 10° NNW 23:41:24 21° NNE 23:41:24 21° NNE
